Location: ??
(35.5052°N, 139.7262°E)
Time: 01:14:47
(UTC+00:00)

Cosmos 1932 - Pass Details

Date: 24 October 2021
Orbit: 943 x 987 km, 65.0° (Epoch: 01 December)

Event Time Altitude Azimuth Distance (km) Brightness Sun altitude
Rises 08:59:11 0° 341° (NNW) 3,616 7.7 -13.7°
Reaches altitude 10° 09:02:15 10° 355° (N) 2,672 6.8 -14.3°
Maximum altitude 09:07:16 25° 49° (NE) 1,828 5.5 -15.3°
Enters shadow 09:08:58 22° 73° (ENE) 1,948 5.5 -15.7°
